Regional Weather Roundup
Issued by NWS

Home | Current Version | Previous Version | Graphics & Text | Print | Product List | Glossary On
Versions: 1 2 3 4 5 6 7 8 9 10 11 12 13 14 15 16 17 18 19 20 21 22 23 24 25 26 27 28 29 30 31 32 33 34 35 36 37 38 39 40 41 42 43 44 45 46 47 48 49 50
000
ASUS43 KIND 031459
RWRIN

WEATHER ROUNDUP FOR INDIANA
NATIONAL WEATHER SERVICE INDIANAPOLIS IN
1100 AM EDT THU SEP 03 2015

NOTE: "FAIR" INDICATES FEW OR NO CLOUDS BELOW 12,000 FEET WITH NO
SIGNIFICANT WEATHER AND/OR OBSTRUCTIONS TO VISIBILITY.

* - STATION DOES NOT REPORT WEATHER SUCH AS PRECIPITATION OR FOG.

+ - STATION NOT QUALITY CONTROLLED BY THE NATIONAL WEATHER SERVICE.
    USE DATA WITH CAUTION...ESPECIALLY DEWPOINT AND RELATIVE
    HUMIDITY OBSERVATIONS.

INZ001>003-010>013-019-020-031600-
NORTHWEST INDIANA

CITY           SKY/WX    TMP DP  RH WIND       PRES   REMARKS
GARY /AIRPORT/ SUNNY     82  66  57 SW9       29.96F

$$

LMZ046-743>745-031600-
SOUTHERN LAKE MICHIGAN

STATION/POSITION TIME  TEMP    WIND        PRES    WAVE
                       AIR SEA DIR/SP/G            HT
                 (UTC) (F)     (DEG/KT/KT) (MB)    (FT)
BURNS HARBOR     1400   78     210/ 10/ 13 1014.9F
MICHIGAN CITY    1400   78     190/  9/ 10   N/A
5NW MICH CITY    1400   75 72  230/  8/ 10   N/A     1

$$

INZ004-005-014>016-021>024-031600-
NORTH CENTRAL INDIANA

CITY           SKY/WX    TMP DP  RH WIND       PRES   REMARKS
GOSHEN         SUNNY     82  69  64 SW10      29.99S
SOUTH BEND     NOT AVBL

$$

INZ006>009-017-018-025>027-031600-
NORTHEAST INDIANA

CITY           SKY/WX    TMP DP  RH WIND       PRES   REMARKS
ANGOLA *+      SUNNY     82  72  69 W5        29.99S
FORT WAYNE     NOT AVBL

$$

INZ028-029-035-036-043>045-051>053-031600-
WEST CENTRAL INDIANA

CITY           SKY/WX    TMP DP  RH WIND       PRES   REMARKS
GREENCASTLE +  SUNNY     81  64  57 S5        30.04F
LAFAYETTE      NOT AVBL
TERRE HAUTE    SUNNY     83  69  62 SW5       30.03F

$$

INZ030>032-037>040-046>048-054>057-064-065-031600-
CENTRAL INDIANA

CITY           SKY/WX    TMP DP  RH WIND       PRES   REMARKS
ANDERSON       SUNNY     82  63  51 CALM      30.04F
GREENWOOD *+   SUNNY     82  64  54 W7        30.04F
INDIANAPOLIS   NOT AVBL
-EAGLE CREEK   SUNNY     83  69  62 SW6       30.02F
SHELBYVILLE    SUNNY     84  69  60 W6        30.03F

$$

INZ033-034-041-042-049-050-058-059-031600-
EAST CENTRAL INDIANA

CITY           SKY/WX    TMP DP  RH WIND       PRES   REMARKS
MUNCIE         SUNNY     81  69  67 W8        30.03S

$$

INZ060-061-067>069-081>083-085>088-031600-
SOUTHWEST INDIANA

CITY           SKY/WX    TMP DP  RH WIND       PRES   REMARKS
EVANSVILLE     NOT AVBL

$$

INZ062-063-066-070>080-084-089>092-031600-
SOUTH CENTRAL AND SOUTHEAST INDIANA

CITY           SKY/WX    TMP DP  RH WIND       PRES   REMARKS
BLOOMINGTON    SUNNY     83  68  60 W5        30.05S
SEYMOUR +      SUNNY     86  66  51 CALM      30.04S

$$




USA.gov is the U.S. government's official web portal to all federal, state and local government web resources and services.